ANA57 RJTT-RJCC

Flight info

Callsign ANA57
Flight time 1h 10m
Altitude 37000
Route BRUCE AGRIS Y11 SAMBO Y119 OHMAR Y13 SIRAO Y139 NAVER
Aircraft B742/H-SDFHIRWXY/L

Departure

Time 2026-02-17 15:07
Airport Tokyo Haneda International Airport (RJTT)

Arrival

Time 2026-02-17 16:18
Airport New Chitose Airport (RJCC)
Time Latitude Longitude Altitude Speed Heading
2026-02-17 14:28 35.55159 139.78954 22 ft 0 kts 239°
2026-02-17 14:48 35.55163 139.78961 22 ft 2 kts 239°
2026-02-17 14:49 35.55170 139.78976 21 ft 2 kts 239°
2026-02-17 14:49 35.55178 139.78993 21 ft 2 kts 239°
2026-02-17 14:49 35.55186 139.79009 20 ft 2 kts 239°
2026-02-17 14:49 35.55193 139.79024 20 ft 2 kts 237°
2026-02-17 14:50 35.55202 139.79039 20 ft 2 kts 235°
2026-02-17 14:50 35.55210 139.79054 19 ft 2 kts 234°
2026-02-17 14:50 35.55219 139.79069 19 ft 2 kts 234°
2026-02-17 14:51 35.55232 139.79091 18 ft 0 kts 239°
2026-02-17 14:55 35.55208 139.79063 19 ft 6 kts 206°
2026-02-17 14:55 35.55156 139.79068 19 ft 9 kts 153°
2026-02-17 14:55 35.55096 139.79108 18 ft 9 kts 150°
2026-02-17 14:55 35.55041 139.79156 17 ft 9 kts 121°
2026-02-17 14:56 35.55045 139.79236 15 ft 10 kts 62°
2026-02-17 14:56 35.55080 139.79314 14 ft 11 kts 61°
2026-02-17 14:56 35.55110 139.79401 12 ft 10 kts 92°
2026-02-17 14:56 35.55073 139.79478 10 ft 11 kts 144°
2026-02-17 14:57 35.55006 139.79523 9 ft 10 kts 151°
2026-02-17 14:57 35.54944 139.79565 9 ft 9 kts 151°
2026-02-17 14:57 35.54886 139.79607 10 ft 9 kts 149°
2026-02-17 14:57 35.54834 139.79645 10 ft 8 kts 150°
2026-02-17 14:58 35.54770 139.79691 9 ft 12 kts 149°
2026-02-17 14:58 35.54686 139.79750 10 ft 15 kts 149°
2026-02-17 14:58 35.54583 139.79823 10 ft 18 kts 150°
2026-02-17 14:59 35.54350 139.79988 9 ft 18 kts 149°
2026-02-17 14:59 35.54241 139.80067 9 ft 17 kts 149°
2026-02-17 14:59 35.54137 139.80142 9 ft 16 kts 149°
2026-02-17 14:59 35.54036 139.80211 9 ft 16 kts 150°
2026-02-17 15:00 35.53942 139.80276 9 ft 12 kts 150°
2026-02-17 15:00 35.53905 139.80324 10 ft 5 kts 96°
2026-02-17 15:00 35.53917 139.80366 10 ft 3 kts 60°
2026-02-17 15:00 35.53919 139.80371 10 ft 0 kts 60°
2026-02-17 15:04 35.53923 139.80377 10 ft 3 kts 60°
2026-02-17 15:04 35.53947 139.80431 10 ft 10 kts 60°
2026-02-17 15:05 35.53995 139.80487 9 ft 8 kts 360°
2026-02-17 15:05 35.54031 139.80472 9 ft 0 kts 330°
2026-02-17 15:06 35.54038 139.80466 10 ft 8 kts 330°
2026-02-17 15:07 35.54950 139.79819 11 ft 139 kts 330°
2026-02-17 15:07 35.55874 139.79143 426 ft 156 kts 330°
2026-02-17 15:07 35.56799 139.78471 1017 ft 160 kts 329°
2026-02-17 15:07 35.57857 139.78114 1511 ft 167 kts 12°
2026-02-17 15:08 35.58830 139.78891 1921 ft 179 kts 58°
2026-02-17 15:08 35.59323 139.80374 2344 ft 197 kts 66°
2026-02-17 15:08 35.60068 139.81908 2727 ft 220 kts 59°
2026-02-17 15:08 35.60712 139.83731 3106 ft 250 kts 78°
2026-02-17 15:09 35.60943 139.85967 3618 ft 274 kts 89°
2026-02-17 15:09 35.60978 139.88303 4575 ft 284 kts 92°
2026-02-17 15:09 35.60971 139.90770 5553 ft 294 kts 90°
2026-02-17 15:09 35.61340 139.93242 6522 ft 307 kts 69°
2026-02-17 15:10 35.62589 139.95363 7471 ft 317 kts 40°
2026-02-17 15:10 35.64527 139.96642 8442 ft 319 kts 14°
2026-02-17 15:10 35.66685 139.97041 9413 ft 317 kts 355°
2026-02-17 15:11 35.71102 139.96805 11192 ft 326 kts 353°
2026-02-17 15:11 35.73373 139.96559 11844 ft 335 kts 344°
2026-02-17 15:11 35.75663 139.95860 12461 ft 351 kts 336°
2026-02-17 15:11 35.78040 139.94840 13300 ft 362 kts 333°
2026-02-17 15:12 35.80357 139.93751 14566 ft 362 kts 332°
2026-02-17 15:12 35.82764 139.92590 14999 ft 387 kts 332°
2026-02-17 15:12 35.85364 139.91334 15072 ft 421 kts 333°
2026-02-17 15:12 35.88161 139.89999 15083 ft 441 kts 333°
2026-02-17 15:13 35.91074 139.88629 15386 ft 459 kts 333°
2026-02-17 15:13 35.94163 139.87239 16291 ft 477 kts 336°
2026-02-17 15:13 35.97474 139.86400 17303 ft 499 kts 348°
2026-02-17 15:13 36.00988 139.86398 18320 ft 520 kts 359°
2026-02-17 15:14 36.04557 139.87260 19353 ft 525 kts
2026-02-17 15:14 36.07983 139.88709 20362 ft 524 kts 14°
2026-02-17 15:14 36.11355 139.90401 21423 ft 524 kts 15°
2026-02-17 15:15 36.18025 139.93680 23469 ft 511 kts
2026-02-17 15:15 36.21485 139.94544 24508 ft 496 kts 358°
2026-02-17 15:15 36.24870 139.94847 25515 ft 485 kts 352°
2026-02-17 15:15 36.28200 139.94858 26570 ft 477 kts 349°
2026-02-17 15:16 36.31506 139.94748 27583 ft 470 kts 347°
2026-02-17 15:16 36.34733 139.94611 28569 ft 462 kts 346°
2026-02-17 15:16 36.37915 139.94482 29570 ft 454 kts 346°
2026-02-17 15:16 36.41032 139.94432 30587 ft 446 kts 347°
2026-02-17 15:17 36.44102 139.94467 31541 ft 436 kts 347°
2026-02-17 15:17 36.47075 139.94548 32379 ft 422 kts 347°
2026-02-17 15:17 36.49943 139.94653 33164 ft 406 kts 346°
2026-02-17 15:17 36.52735 139.94762 33540 ft 403 kts 346°
2026-02-17 15:18 36.58473 139.94946 33545 ft 423 kts 347°
2026-02-17 15:19 36.67592 139.95308 33648 ft 451 kts 348°
2026-02-17 15:19 36.70737 139.95456 34024 ft 448 kts 348°
2026-02-17 15:19 36.73819 139.95609 34384 ft 445 kts 348°
2026-02-17 15:19 36.76908 139.95750 34724 ft 443 kts 348°
2026-02-17 15:20 36.80006 139.95888 34995 ft 444 kts 347°
2026-02-17 15:20 36.83061 139.96022 35288 ft 443 kts 348°
2026-02-17 15:20 36.86152 139.96287 35611 ft 449 kts 351°
2026-02-17 15:20 36.89272 139.96786 35835 ft 455 kts 354°
2026-02-17 15:21 36.92424 139.97449 35939 ft 462 kts 356°
2026-02-17 15:21 36.95568 139.98215 36283 ft 461 kts 357°
2026-02-17 15:21 36.98705 139.99030 36614 ft 458 kts 357°
2026-02-17 15:21 37.01801 139.99846 36867 ft 456 kts 357°
2026-02-17 15:22 37.04903 140.00655 37005 ft 457 kts 357°
2026-02-17 15:22 37.11188 140.02264 37041 ft 467 kts 357°
2026-02-17 15:23 37.17627 140.03915 37025 ft 479 kts 358°
2026-02-17 15:23 37.20908 140.04761 37024 ft 484 kts 358°
2026-02-17 15:23 37.27600 140.06491 37010 ft 496 kts 358°
2026-02-17 15:24 37.34448 140.08267 37021 ft 507 kts 359°
2026-02-17 15:24 37.41402 140.10080 37012 ft 514 kts 359°
2026-02-17 15:25 37.48430 140.11923 37030 ft 522 kts 360°
2026-02-17 15:25 37.55567 140.13791 37047 ft 527 kts
2026-02-17 15:26 37.62788 140.15668 36981 ft 532 kts
2026-02-17 15:27 37.73714 140.18527 36931 ft 535 kts
2026-02-17 15:27 37.80990 140.20433 36928 ft 536 kts
2026-02-17 15:28 37.88266 140.22353 36955 ft 533 kts
2026-02-17 15:28 37.95472 140.24254 37004 ft 530 kts
2026-02-17 15:29 38.02727 140.26161 37059 ft 531 kts
2026-02-17 15:29 38.09949 140.28062 37080 ft 535 kts
2026-02-17 15:30 38.17223 140.29994 37076 ft 534 kts
2026-02-17 15:30 38.24496 140.31929 37062 ft 531 kts
2026-02-17 15:31 38.35331 140.34819 37025 ft 532 kts
2026-02-17 15:31 38.42561 140.36928 37044 ft 535 kts
2026-02-17 15:32 38.49817 140.39230 37012 ft 536 kts
2026-02-17 15:32 38.57022 140.41557 37013 ft 537 kts
2026-02-17 15:33 38.64277 140.43900 37047 ft 537 kts
2026-02-17 15:33 38.71499 140.46234 37049 ft 535 kts
2026-02-17 15:34 38.78694 140.48557 37072 ft 537 kts
2026-02-17 15:35 38.89552 140.52074 37040 ft 535 kts
2026-02-17 15:35 38.96732 140.54402 37010 ft 536 kts
2026-02-17 15:36 39.03975 140.56758 37024 ft 538 kts
2026-02-17 15:36 39.11221 140.59132 37023 ft 534 kts
2026-02-17 15:37 39.18382 140.61482 37019 ft 534 kts
2026-02-17 15:37 39.25592 140.63849 37057 ft 535 kts
2026-02-17 15:38 39.32780 140.66232 37055 ft 536 kts
2026-02-17 15:38 39.40017 140.68684 37047 ft 536 kts
2026-02-17 15:39 39.50794 140.72284 37032 ft 537 kts
2026-02-17 15:39 39.58020 140.74681 37006 ft 535 kts
2026-02-17 15:40 39.65243 140.77078 37003 ft 536 kts
2026-02-17 15:40 39.72426 140.79469 37006 ft 536 kts
2026-02-17 15:41 39.79659 140.81886 37026 ft 536 kts
2026-02-17 15:41 39.86855 140.84291 37007 ft 536 kts
2026-02-17 15:42 39.94037 140.86702 36998 ft 535 kts
2026-02-17 15:43 40.04868 140.90340 37034 ft 538 kts
2026-02-17 15:43 40.12113 140.92784 36989 ft 534 kts
2026-02-17 15:44 40.19310 140.94742 37015 ft 524 kts 359°
2026-02-17 15:44 40.26545 140.95422 37014 ft 518 kts 353°
2026-02-17 15:45 40.33751 140.95621 37084 ft 518 kts 353°
2026-02-17 15:45 40.40918 140.95787 37068 ft 519 kts 353°
2026-02-17 15:46 40.48140 140.96005 37006 ft 516 kts 353°
2026-02-17 15:46 40.55295 140.96239 37081 ft 517 kts 353°
2026-02-17 15:47 40.66101 140.96786 37032 ft 525 kts
2026-02-17 15:47 40.69675 140.97917 37030 ft 536 kts 13°
2026-02-17 15:47 40.73121 140.99770 37072 ft 542 kts 18°
2026-02-17 15:48 40.79957 141.03966 37073 ft 542 kts 18°
2026-02-17 15:48 40.86853 141.07814 37116 ft 539 kts 15°
2026-02-17 15:49 40.93834 141.11389 37114 ft 539 kts 14°
2026-02-17 15:49 41.00852 141.14914 37120 ft 541 kts 14°
2026-02-17 15:50 41.07892 141.18472 37100 ft 541 kts 14°
2026-02-17 15:51 41.18355 141.23807 37070 ft 536 kts 14°
2026-02-17 15:51 41.25317 141.27364 37068 ft 537 kts 15°
2026-02-17 15:52 41.32284 141.30933 37068 ft 538 kts 15°
2026-02-17 15:52 41.35755 141.32718 37058 ft 524 kts 15°
2026-02-17 15:52 41.39097 141.34447 37012 ft 507 kts 14°
2026-02-17 15:52 41.42321 141.36112 36661 ft 501 kts 14°
2026-02-17 15:53 41.45571 141.37782 36364 ft 494 kts 15°
2026-02-17 15:53 41.48739 141.39409 36036 ft 488 kts 15°
2026-02-17 15:53 41.51889 141.41029 35735 ft 483 kts 15°
2026-02-17 15:53 41.55009 141.42636 35357 ft 477 kts 15°
2026-02-17 15:54 41.58054 141.44209 34940 ft 473 kts 15°
2026-02-17 15:54 41.61106 141.45789 34648 ft 468 kts 15°
2026-02-17 15:54 41.67123 141.48910 33727 ft 462 kts 15°
2026-02-17 15:55 41.70112 141.50459 33227 ft 462 kts 16°
2026-02-17 15:55 41.73096 141.52006 32746 ft 461 kts 17°
2026-02-17 15:55 41.76051 141.53543 32124 ft 460 kts 17°
2026-02-17 15:55 41.79054 141.55107 31512 ft 460 kts 17°
2026-02-17 15:56 41.82027 141.56656 30896 ft 459 kts 17°
2026-02-17 15:56 41.84973 141.58195 30268 ft 458 kts 17°
2026-02-17 15:56 41.87942 141.59747 29658 ft 458 kts 17°
2026-02-17 15:56 41.90877 141.61281 29072 ft 457 kts 17°
2026-02-17 15:57 41.93859 141.62840 28441 ft 456 kts 18°
2026-02-17 15:57 41.96804 141.64383 27804 ft 456 kts 17°
2026-02-17 15:57 41.99736 141.65929 27203 ft 455 kts 19°
2026-02-17 15:57 42.02652 141.67494 26583 ft 454 kts 19°
2026-02-17 15:58 42.05556 141.69054 25967 ft 453 kts 19°
2026-02-17 15:58 42.08494 141.70622 25335 ft 451 kts 19°
2026-02-17 15:58 42.14319 141.73704 24047 ft 449 kts 19°
2026-02-17 15:59 42.17213 141.75232 23401 ft 447 kts 19°
2026-02-17 15:59 42.20085 141.76747 22752 ft 445 kts 19°
2026-02-17 15:59 42.22960 141.78276 22098 ft 443 kts 20°
2026-02-17 15:59 42.25782 141.79843 21458 ft 442 kts 21°
2026-02-17 16:00 42.28617 141.81439 20812 ft 440 kts 20°
2026-02-17 16:00 42.31422 141.82974 20174 ft 437 kts 20°
2026-02-17 16:00 42.34232 141.84470 19525 ft 435 kts 19°
2026-02-17 16:00 42.37054 141.85945 18891 ft 433 kts 19°
2026-02-17 16:01 42.39831 141.87389 18276 ft 431 kts 19°
2026-02-17 16:01 42.42610 141.88832 17647 ft 428 kts 19°
2026-02-17 16:01 42.45404 141.90286 17005 ft 426 kts 19°
2026-02-17 16:01 42.48121 141.91705 16391 ft 423 kts 19°
2026-02-17 16:02 42.50861 141.93159 15762 ft 421 kts 19°
2026-02-17 16:02 42.53570 141.94601 15131 ft 418 kts 19°
2026-02-17 16:02 42.59057 141.96605 13879 ft 406 kts
2026-02-17 16:03 42.61785 141.97139 13226 ft 385 kts
2026-02-17 16:03 42.64381 141.97636 12760 ft 362 kts
2026-02-17 16:03 42.66771 141.97505 12361 ft 336 kts 346°
2026-02-17 16:03 42.68992 141.96799 12077 ft 314 kts 341°
2026-02-17 16:04 42.70989 141.96063 12000 ft 289 kts 340°
2026-02-17 16:04 42.72873 141.95369 11997 ft 265 kts 340°
2026-02-17 16:04 42.74574 141.94757 12009 ft 247 kts 340°
2026-02-17 16:04 42.76189 141.94197 12009 ft 229 kts 340°
2026-02-17 16:05 42.77541 141.93236 12031 ft 220 kts 311°
2026-02-17 16:05 42.78692 141.91791 11900 ft 240 kts 316°
2026-02-17 16:05 42.80317 141.90755 11488 ft 269 kts 340°
2026-02-17 16:05 42.82125 141.90137 10998 ft 270 kts 342°
2026-02-17 16:06 42.83943 141.89604 10445 ft 269 kts 344°
2026-02-17 16:06 42.85784 141.89119 9880 ft 268 kts 345°
2026-02-17 16:06 42.89440 141.88235 8675 ft 266 kts 347°
2026-02-17 16:07 42.91237 141.87820 8074 ft 261 kts 346°
2026-02-17 16:07 42.93004 141.87418 7475 ft 258 kts 347°
2026-02-17 16:07 42.94764 141.87024 6875 ft 254 kts 346°
2026-02-17 16:07 42.96466 141.86646 6481 ft 243 kts 346°
2026-02-17 16:08 42.98093 141.86284 6091 ft 234 kts 347°
2026-02-17 16:08 43.01224 141.85588 5386 ft 222 kts 347°
2026-02-17 16:08 43.02705 141.85260 5162 ft 215 kts 347°
2026-02-17 16:09 43.04171 141.84937 4919 ft 211 kts 347°
2026-02-17 16:09 43.05618 141.84613 4673 ft 209 kts 346°
2026-02-17 16:09 43.06888 141.83778 4389 ft 202 kts 308°
2026-02-17 16:09 43.07412 141.82109 4101 ft 191 kts 265°
2026-02-17 16:10 43.07158 141.80380 3851 ft 184 kts 251°
2026-02-17 16:10 43.06802 141.78737 3569 ft 180 kts 248°
2026-02-17 16:10 43.05246 141.76309 3049 ft 169 kts 220°
2026-02-17 16:11 43.04392 141.75226 2994 ft 169 kts 220°
2026-02-17 16:11 43.03395 141.74423 2995 ft 167 kts 201°
2026-02-17 16:11 43.02307 141.73834 2985 ft 168 kts 200°
2026-02-17 16:11 43.01219 141.73254 2989 ft 169 kts 200°
2026-02-17 16:12 43.00104 141.72669 2991 ft 169 kts 200°
2026-02-17 16:12 42.99012 141.72086 2993 ft 169 kts 200°
2026-02-17 16:12 42.97906 141.71497 2993 ft 169 kts 200°
2026-02-17 16:12 42.96807 141.70912 2992 ft 170 kts 200°
2026-02-17 16:13 42.95701 141.70328 2982 ft 171 kts 200°
2026-02-17 16:13 42.94595 141.69745 2989 ft 170 kts 200°
2026-02-17 16:13 42.93525 141.69185 2981 ft 157 kts 200°
2026-02-17 16:13 42.92520 141.68666 2989 ft 154 kts 200°
2026-02-17 16:14 42.91506 141.68146 2857 ft 157 kts 200°
2026-02-17 16:14 42.90508 141.67616 2662 ft 150 kts 202°
2026-02-17 16:14 42.88452 141.67188 2152 ft 153 kts 175°
2026-02-17 16:15 42.87391 141.67326 1899 ft 150 kts 173°
2026-02-17 16:15 42.86356 141.67493 1684 ft 151 kts 172°
2026-02-17 16:15 42.85330 141.67667 1466 ft 144 kts 172°
2026-02-17 16:15 42.84369 141.67835 1274 ft 138 kts 171°
2026-02-17 16:16 42.83409 141.68004 1103 ft 140 kts 171°
2026-02-17 16:16 42.82439 141.68175 881 ft 139 kts 171°
2026-02-17 16:16 42.81500 141.68339 677 ft 133 kts 171°
2026-02-17 16:16 42.80592 141.68498 490 ft 130 kts 171°
2026-02-17 16:17 42.79684 141.68654 325 ft 132 kts 171°
2026-02-17 16:17 42.78782 141.68820 139 ft 132 kts 170°
2026-02-17 16:17 42.77916 141.68979 94 ft 113 kts 173°
2026-02-17 16:17 42.77316 141.69083 93 ft 57 kts 172°
2026-02-17 16:18 42.76940 141.69135 93 ft 52 kts 184°
2026-02-17 16:18 42.76705 141.69026 93 ft 19 kts 257°
2026-02-17 16:18 42.76982 141.68906 93 ft 29 kts 354°
2026-02-17 16:19 42.77206 141.68872 93 ft 35 kts 354°
2026-02-17 16:19 42.77464 141.68839 93 ft 37 kts 353°